Flag for U.S.A. Weather past 2 weeks in Warren, Michigan, U.S.A.

Now
70 °F

Sunny.


Feels Like: 75 °F
Forecast: 64 / 87 °F
Wind: 5 mph from West

Location: Detroit City Airport

Current Time: Aug 2, 2015 at 8:30:29 AM

Latest Report: Aug 2, 2015 at 7:53 AM


Visibility: 10 mi

Pressure: 29.87 "Hg

Humidity: 64%

Dew point: 57 °F

Location of WarrenLocation

Historic Weather in Warren — Graph

°F

Warren temperature yesterday

Maximum temperature yesterday: 83 °F (at 4:53 PM)
Minimum temperature yesterday: 65 °F (at 5:53 AM)
Average temperature yesterday: 75 °F

Past Weeks' High & Low Weather Summary

 TemperatureHumidityPressure
High90 °F (Jul 19, 3:53 PM)93% (Jul 26, 2:53 AM)30.05 "Hg (Jul 26, 2:53 AM)
Low62 °F (Jul 22, 4:53 AM)29% (Jul 31, 4:53 PM)29.26 "Hg (Jul 19, 12:53 PM)
Average77 °F58%29.90 "Hg
* Reported Jul 18 6:53 AM — Aug 2 6:53 AM, Warren, Weather by CustomWeather, © 2015

Note: Actual official high and low records may vary slightly from our data, if they occured in-between our weather recording intervals... More about our weather records

Advertising

Warren weather history for previous 24 hours

 ConditionsComfort  
Time TempWeatherWind HumidityBarometerVisibility
6:53 AM
Sun, Aug 2
64 °FClear.3 mph75%29.88 "Hg10 mi
5:53 AM65 °FClear.6 mph70%29.87 "Hg10 mi
4:53 AM65 °FClear.6 mph68%29.87 "Hg10 mi
3:53 AM66 °FClear.5 mph65%29.87 "Hg10 mi
2:53 AM66 °FClear.3 mph63%29.88 "Hg10 mi
1:53 AM69 °FClear.5 mph57%29.88 "Hg10 mi
12:53 AM72 °FClear.5 mph48%29.88 "Hg10 mi
11:53 PM
Sat, Aug 1
73 °FClear.7 mph44%29.88 "Hg10 mi
10:53 PM74 °FClear.6 mph43%29.88 "Hg10 mi
9:53 PM76 °FClear.3 mph37%29.88 "Hg10 mi
8:53 PM79 °FSunny.12 mph31%29.85 "Hg10 mi
7:53 PM81 °FSunny.10 mph30%29.85 "Hg10 mi
6:53 PM82 °FSunny.13 mph29%29.84 "Hg10 mi
5:53 PM83 °FSunny.15 mph30%29.85 "Hg10 mi
4:53 PM83 °FSunny.12 mph32%29.86 "Hg10 mi
3:53 PM82 °FSunny.12 mph32%29.87 "Hg10 mi
2:53 PM81 °FSunny.14 mph34%29.87 "Hg10 mi
1:53 PM80 °FSunny.13 mph35%29.89 "Hg10 mi
12:53 PM81 °FSunny.12 mph38%29.90 "Hg10 mi
11:53 AM79 °FSunny.12 mph41%29.91 "Hg10 mi
10:53 AM77 °FSunny.10 mph45%29.91 "Hg10 mi
9:53 AM74 °FSunny.5 mph52%29.91 "Hg10 mi
8:53 AM71 °FSunny.6 mph57%29.92 "Hg10 mi
Weather by CustomWeather, © 2015

See weather overviewHow to use our weather pages